FREGAT R/B, 42720

Orbit data source: Space-Track

FREGAT R/B, 42720 is space debris originally from a launch on Thu, 25 May 2017 UTC launched from the Plesetsk Missile And Space Complex (PKMTR). Debris objects in space refer to the collection of defunct objects orbiting the Earth. Examples of debris include non-operational satellites, rocket bodies, and fragments generated from explosions, collisions, or faulty payload assembly.

Loading next visibility...
Identifier
42720, 2017-027B
Orbit
Molniya
Country
Flag of CISCIS
Related business
Manufacturer
Lavochkin
Mission
Spacecraft
Bus & Motor
FREGAT, Unknown motor
Mass
1,000 kg wet, 1,000 kg dry
Launch date (UTC)
2017-05-25 (9 years ago)
Launch vehicle
Unknown
Launch site
Plesetsk Missile And Space Complex (PKMTR)
Object type
Payload
Rocket body
Debris
Shape & HBR
Cyl, 1.7 m
Radar Cross Section
8.354 m², Large (>1 m²)

Expand to show TLE details & history
Last TLE update: 1 week ago

TLE from 1 week ago
0 FREGAT R/B
1 42720U 17027B   26165.47039905  .00000740  00000-0  30005-2 0  9990
2 42720  62.4662 232.7323 7088759 267.5343  17.2246  2.01905976 66776
Epoch: 2026-06-14T11:17Z
TLE epoch observation values (Epoch: 2026-06-14T11:17:22.477Z)
Latitude
0.00008°
Longitude
160.62947°
Altitude
7,232.684 km
Speed
6.596 km/s
True Right ascension
15h 30m 58s
True Declination
0° 00' 00"
Sunlit
Object was in daylight at epoch
Visualization orbit readout
Latitude
Unknown
Longitude
Unknown
Altitude
Unknown
Speed
Unknown
Apparent Right ascension
Unknown
Apparent Declination
Unknown
Sunlit
N/A
Visualization observer readout
Local Sidereal Time
21:45:14
Azimuth
Unknown
Elevation
Unknown
Doppler factor
Unknown
Orbital elements
Apogee altitude
38,807.374 km
Perigee altitude
1,319.667 km
Semi-major axis
26,441.657 km
Eccentricity
0.70888
Inclination
62.4662°
RAAN
232.7323°
Arg. of periapsis
267.5343°
True anomaly
92.79439°
Mean anomaly
17.2246°
Eccentric anomaly
46.86232°
Mean motion
0.50479 °/min
Orbital period
713.17 mins
BSTAR
0.0030005
Loading maneuver chart data...
Computing Atmospheric mass density...
Loading historical data...
Loading historical data...
Loading historical data...
Loading historical data...
Loading historical data...
Loading historical data...
Loading historical data...
Other satellites on launch #27 in the year 2017 (2017-05-25 UTC)

Documentation

Showing up to 5 results
|